SQ2HCW-13 Weather Reports


time (UTC)temp
C
wind
direction
speed
KPH
gust
KPH
rain 1hr
cm
rain 24hr
cm
rain mn
cm
humidity
%
barometer
mb
20260504235112 12 0.0 0.0 0.00 0.00 0.00 82 997.0
20260504234103 12 0.0 0.0 0.00 0.00 0.00 80 997.0
20260504233059 13 0.0 0.0 0.00 0.00 0.00 79 997.0
20260504232111 13 0.0 0.0 0.00 0.00 0.00 79 997.0
20260504231048 14 0.0 0.0 0.00 0.00 0.00 79 997.1
20260504230038 14 0.0 0.0 0.00 0.00 0.00 79 997.1
20260504225035 14 0.0 0.0 0.00 0.00 0.00 79 997.1
20260504224026 14 0.0 0.0 0.00 0.00 0.00 78 997.2
20260504223023 15 0.0 0.0 0.00 0.00 0.00 77 997.1
20260504222115 15 0.0 0.0 0.00 0.00 0.00 76 996.9
20260504221112 15 0.0 0.0 0.00 0.00 0.00 76 996.9
20260504215120 15 0.0 0.0 0.00 0.00 0.00 74 997.1
20260504214051 16 0.0 0.0 0.00 0.00 0.00 73 997.1
20260504213048 16 0.0 0.0 0.00 0.00 0.00 71 997.1
20260504212039 16 0.0 0.0 0.00 0.00 0.00 71 997.0
20260504211056 16 0.0 0.0 0.00 0.00 0.00 71 997.0
20260504210027 16 0.0 0.0 0.00 0.00 0.00 70 997.0
20260504205024 17 0.0 0.0 0.00 0.00 0.00 70 997.0
20260504204115 17 0.0 0.0 0.00 0.00 0.00 69 997.0
20260504203112 17 0.0 0.0 0.00 0.00 0.00 69 997.1
20260504202123 17 0.0 0.0 0.00 0.00 0.00 69 997.0
20260504201120 17 0.0 0.0 0.00 0.00 0.00 69 997.0
20260504200051 17 0.0 0.0 0.00 0.00 0.00 69 996.9
20260504195048 16 0.0 0.0 0.00 0.00 0.00 71 996.9
20260504194039 16 0.0 0.0 0.00 0.00 0.00 70 996.9
20260504193056 16 0.0 0.0 0.00 0.00 0.00 71 996.8
20260504192027 16 0.0 0.0 0.00 0.00 0.00 73 996.9
20260504191024 17 0.0 0.0 0.00 0.00 0.00 70 996.8
20260504190115 17 0.0 0.0 0.00 0.00 0.00 68 996.8
20260504185112 17 0.0 0.0 0.00 0.00 0.00 66 996.5
20260504184103 17 0.0 0.0 0.00 0.00 0.00 63 996.4
20260504183140 18 0.0 0.0 0.00 0.00 0.00 61 996.4
20260504182524 18 0.0 0.0 0.00 0.00 0.00 60 996.3
20260504181102 20 0.0 0.0 0.00 0.00 0.00 61 996.3
20260504180059 20 0.0 0.0 0.00 0.00 0.00 60 996.3
20260504175600 20 0.0 0.0 0.00 0.00 0.00 57 996.3
20260504174114 21 0.0 0.0 0.00 0.00 0.00 53 996.3
20260504172523 22 0.0 0.0 0.00 0.00 0.00 50 996.2